Amsterdam, Netherlands

4:23 AM CEST on October 18, 2017 (GMT +0200)
Amsterdam

Weather History for 06240 - July, 2013

Change the Weather History Date:

Monday, July 8, 2013

  Actual Average Record
Temperature  
Mean Temperature 66 °F -  
Max Temperature 75 °F 68 °F - ()
Min Temperature 58 °F 54 °F - ()
Cooling Degree Days 2    
Growing Degree Days 16 (Base 50)    
Moisture  
Dew Point 56 °F    
Average Humidity 70    
Maximum Humidity 94    
Minimum Humidity 44    
Precipitation  
Precipitation 0.00 in - - ()
Sea Level Pressure  
Sea Level Pressure 30.47 in    
Wind  
Wind Speed 10 mph ()    
Max Wind Speed 16 mph    
Max Gust Speed -    
Visibility 12.8 miles    
Events      
T = Trace of Precipitation, MM = Missing Value Source: Averaged Metar Reports

Daily Weather History Graph

Daily Weather History Graph

Search for Another Location

Airport or City:

Trip Planner

Search our weather history database for the weather conditions in past years. The results will help you decide how hot, cold, wet, or windy it might be!

Date:

Astronomy

Jul. 08, 2013 Rise Set
Actual Time 5:29 AM CEST 10:01 PM CEST
Civil Twilight 4:41 AM CEST 10:49 PM CEST
Nautical Twilight 3:27 AM CEST 12:02 AM CEST
Astronomical Twilight 2:18 AM CEST 1:13 AM CEST
Moon 5:56 AM CEST (7/8) 9:39 PM CEST (7/8)
Length of Visible Light 18h 07m
Length of Day
16h 32m
New Moon, 0% of the Moon is Illuminated
Jul 8
New Moon
Jul 16
First Quarter
Jul 22
Full
Jul 29
Last Quarter
Aug 6
New

Hourly Weather History & Observations

Time (CEST) Temp. Dew Point Humidity Pressure Visibility Wind Dir Wind Speed Gust Speed Precip Events Conditions
12:25 AM 60.8 °F 57.2 °F 88% 30.48 in - NNE 10.4 mph - N/A   Clear
12:55 AM 60.8 °F 57.2 °F 88% 30.48 in - NNE 10.4 mph - N/A   Clear
1:25 AM 60.8 °F 57.2 °F 88% 30.48 in - NNE 10.4 mph - N/A   Clear
1:55 AM 60.8 °F 57.2 °F 88% 30.48 in - NNE 9.2 mph - N/A   Clear
2:00 AM 60 °F 57 °F 88% 30.50 in 12 mi NNE 8.9 mph - -   Partly Cloudy
2:25 AM 60.8 °F 57.2 °F 88% 30.48 in - NNE 9.2 mph - N/A   Clear
2:55 AM 59.0 °F 57.2 °F 94% 30.48 in - NNE 8.1 mph - N/A   Clear
3:25 AM 59.0 °F 57.2 °F 94% 30.48 in - NNE 8.1 mph - N/A   Clear
3:55 AM 59.0 °F 57.2 °F 94% 30.48 in - NNE 6.9 mph - N/A   Clear
4:25 AM 59.0 °F 57.2 °F 94% 30.48 in - NE 10.4 mph - N/A   Clear
4:55 AM 59.0 °F 57.2 °F 94% 30.48 in - NE 8.1 mph - N/A   Clear
5:00 AM 60 °F 57 °F 85% 30.50 in 19 mi NE 8.9 mph - -  
5:25 AM 60.8 °F 57.2 °F 88% 30.48 in - NE 9.2 mph - N/A   Clear
5:55 AM 60.8 °F 57.2 °F 88% 30.48 in - NE 9.2 mph - N/A   Clear
6:25 AM 60.8 °F 57.2 °F 88% 30.48 in - NE 9.2 mph - N/A   Clear
6:55 AM 60.8 °F 57.2 °F 88% 30.48 in - NE 10.4 mph - N/A   Clear
7:25 AM 62.6 °F 57.2 °F 82% 30.48 in - NE 12.7 mph - N/A   Clear
7:55 AM 62.6 °F 57.2 °F 82% 30.48 in - NE 11.5 mph - N/A   Clear
8:00 AM 63 °F 57 °F 74% 30.50 in 19 mi NE 11.2 mph - -   Partly Cloudy
8:25 AM 64.4 °F 57.2 °F 77% 30.48 in - NE 11.5 mph - N/A   Clear
8:55 AM 64.4 °F 57.2 °F 77% 30.48 in - NE 11.5 mph - N/A   Clear
9:25 AM 66.2 °F 55.4 °F 68% 30.51 in - NE 11.5 mph - N/A   Clear
9:55 AM 68.0 °F 53.6 °F 60% 30.51 in - NE 11.5 mph - N/A   Clear
10:25 AM 68.0 °F 55.4 °F 64% 30.51 in - NE 11.5 mph - N/A   Clear
10:55 AM 69.8 °F 55.4 °F 60% 30.51 in - NE 9.2 mph - N/A   Clear
11:00 AM 69 °F 54 °F 49% 30.51 in 19 mi NE 11.2 mph - -   Scattered Clouds
11:25 AM 69.8 °F 53.6 °F 56% 30.48 in - NE 11.5 mph - N/A   Clear
11:55 AM 69.8 °F 53.6 °F 56% 30.48 in - NNE 11.5 mph - N/A   Clear
12:25 PM 71.6 °F 57.2 °F 60% 30.48 in - NNE 10.4 mph - N/A   Clear
12:55 PM 73.4 °F 55.4 °F 53% 30.48 in - NE 11.5 mph - N/A   Clear
1:25 PM 73.4 °F 55.4 °F 53% 30.48 in - NE 12.7 mph - N/A   Clear
1:55 PM 73.4 °F 53.6 °F 50% 30.48 in - NE 12.7 mph - N/A   Clear
2:00 PM 73 °F 56 °F 44% 30.49 in 17 mi NE 11.2 mph - -   Partly Cloudy
2:25 PM 73.4 °F 55.4 °F 53% 30.48 in - NNE 12.7 mph - N/A   Clear
2:55 PM 73.4 °F 55.4 °F 53% 30.45 in - NE 15.0 mph - N/A   Clear
3:25 PM 75.2 °F 53.6 °F 47% 30.45 in - NE 12.7 mph - N/A   Clear
3:55 PM 75.2 °F 55.4 °F 50% 30.45 in 6.2 mi NE 13.8 mph - N/A   Partly Cloudy
4:25 PM 73.4 °F 59.0 °F 61% 30.45 in 6.2 mi NE 15.0 mph - N/A   Partly Cloudy
4:55 PM 75.2 °F 60.8 °F 61% 30.45 in 6.2 mi NNE 15.0 mph - N/A   Partly Cloudy
5:00 PM 74 °F 61 °F 54% 30.45 in 13 mi NNE 13.4 mph - -  
5:25 PM 73.4 °F 60.8 °F 65% 30.45 in 6.2 mi NNE 15.0 mph - N/A   Partly Cloudy
5:55 PM 73.4 °F 60.8 °F 65% 30.45 in 6.2 mi NE 15.0 mph - N/A   Partly Cloudy
6:25 PM 73.4 °F 60.8 °F 65% 30.42 in - NE 15.0 mph - N/A   Clear
6:55 PM 71.6 °F 59.0 °F 64% 30.42 in - NNE 16.1 mph - N/A   Clear
7:25 PM 69.8 °F 59.0 °F 68% 30.42 in - NE 15.0 mph - N/A   Clear
7:55 PM 69.8 °F 57.2 °F 64% 30.42 in - NE 15.0 mph - N/A   Clear
8:00 PM 69 °F 57 °F 57% 30.44 in 18 mi NNE 15.7 mph - -   Partly Cloudy
8:25 PM 68.0 °F 55.4 °F 64% 30.42 in - NNE 12.7 mph - N/A   Clear
8:55 PM 68.0 °F 53.6 °F 60% 30.42 in - NE 13.8 mph - N/A   Clear
9:25 PM 66.2 °F 53.6 °F 64% 30.42 in - NNE 12.7 mph - N/A   Clear
9:55 PM 66.2 °F 53.6 °F 64% 30.42 in - NNE 13.8 mph - N/A   Clear
10:25 PM 64.4 °F 51.8 °F 64% 30.42 in - NNE 9.2 mph - N/A   Clear
10:55 PM 64.4 °F 51.8 °F 64% 30.42 in - NNE 11.5 mph - N/A   Clear
11:00 PM 64 °F 51 °F 53% 30.44 in 19 mi NNE 11.2 mph - -  
11:25 PM 62.6 °F 51.8 °F 68% 30.42 in - NNE 12.7 mph - N/A   Clear
11:55 PM 62.6 °F 51.8 °F 68% 30.42 in - NNE 10.4 mph - N/A   Clear